Location: Équennes
(49.7375°N, 1.9622°E)
Time: 01:01:57
(UTC+00:00)

Cosmos 1656 - Pass Details

Date: 05 October 2023
Orbit: 797 x 849 km, 71.1° (Epoch: 03 December)

Event Time Altitude Azimuth Distance (km) Brightness Sun altitude
Rises 22:00:22 0° 331° (NNW) 3,319 7.7 -40.4°
Reaches altitude 10° 22:02:46 10° 332° (NNW) 2,389 6.7 -40.7°
Enters shadow 22:04:19 20° 334° (NNW) 1,810 5.9 -40.8°
